Location: Ayer Observatory
(42.2600°N, 71.0700°W)
Time: 00:51:28
(UTC-04:00)

XW-2A - Visible Passes

Search period start: 21 July 2019 00:00
Search period end: 31 July 2019 00:00
Orbit: 430 x 450 km, 97.3° (Epoch: 20 July)

Date Brightness Start Highest point End Pass type
(mag) Time Alt. Az. Time Alt. Az. Time Alt. Az.
21 Jul ? 21:27:27 10° SW 21:29:55 20° W 21:32:24 10° NW visible
22 Jul ? 20:48:40 10° S 20:51:56 67° W 20:55:13 10° NNW visible
23 Jul ? 21:45:27 10° WSW 21:46:50 12° W 21:48:14 10° WNW visible
24 Jul ? 21:05:40 10° SSW 21:08:45 37° W 21:11:51 10° NNW visible
26 Jul ? 21:22:57 10° SSW 21:25:36 22° W 21:28:17 10° NW visible
27 Jul ? 20:44:21 10° S 20:47:38 80° W 20:50:57 10° NNW visible
28 Jul ? 21:40:41 10° SW 21:42:29 14° W 21:44:19 10° WNW visible
29 Jul ? 21:01:15 10° S 21:04:24 44° W 21:07:37 10° NNW visible
